Location: Stockholm
(59.3330°N, 18.0500°E)
Time: 10:32:26
(UTC+01:00)

FENGYUN 1C DEB - Pass Details

Date: 08 December 2023
Orbit: 841 x 915 km, 98.8° (Epoch: 21 February)

Event Time Altitude Azimuth Distance (km) Brightness Sun altitude
Exits shadow 20:37:37 14° 340° (NNW) 2,200 ? -41.5°
Drops below altitude 10° 20:38:20 10° 341° (NNW) 2,479 ? -41.5°
Sets 20:40:43 0° 342° (NNW) 3,422 ? -41.8°
